Regional Weather Roundup
Issued by NWS

Home | Current Version | Previous Version | Graphics & Text | Print | Product List | Glossary On
Versions: 1 2 3 4 5 6 7 8 9 10 11 12 13 14 15 16 17 18 19 20 21 22 23 24 25 26 27 28 29 30 31 32 33 34 35 36 37 38 39 40 41 42 43 44 45 46 47 48 49 50
592
ASUS43 KBIS 071202
RWRND

NORTH DAKOTA REGIONAL WEATHER ROUNDUP
NATIONAL WEATHER SERVICE BISMARCK ND
600 AM CST SUN FEB 07 2016

NOTE: "FAIR" INDICATES FEW OR NO CLOUDS BELOW 12,000 FEET WITH NO
SIGNIFICANT WEATHER AND/OR OBSTRUCTIONS TO VISIBILITY.


NDZ001>003-009>011-017-071300-
NORTHWEST NORTH DAKOTA

CITY           SKY/WX    TMP DP  RH WIND       PRES   REMARKS
WILLISTON      FLURRIES  32  25  75 NW31G47   29.88R WCI  17
6HR MIN TEMP:  32; 6HR MAX TEMP:  36; 6HR PCP: TRACE;

MINOT          FLURRIES  37  25  61 W31G45    29.68R
$$

NDZ018>021-031>035-040>046-071300-
SOUTHWEST NORTH DAKOTA

CITY           SKY/WX    TMP DP  RH WIND       PRES   REMARKS
BISMARCK       CLOUDY    39  21  48 W20G35    29.78S
6HR MIN TEMP:  37; 6HR MAX TEMP:  41;

DICKINSON      LGT SNOW  28  22  78 NW35G44   29.86R WCI  11
GARRISON         N/A     33  27  78 NW28G41   29.73R WCI  20
6HR MIN TEMP:  33; 6HR MAX TEMP:  36;

HETTINGER ARPT CLEAR     32  15  49 W41G61    29.92S WCI  16
$$

NDZ004>008-012>016-024-026-027-054-071300-
NORTHEAST NORTH DAKOTA

CITY           SKY/WX    TMP DP  RH WIND       PRES   REMARKS
GRAND FORKS    CLOUDY    37  29  72 W24G31    29.50S
DEVILS LAKE    MOCLDY    33  27  78 W26G35    29.56S WCI  20
$$

NDZ022-023-025-028>030-036>039-047>053-071300-
SOUTHEAST NORTH DAKOTA

CITY           SKY/WX    TMP DP  RH WIND       PRES   REMARKS
FARGO          CLOUDY    37  27  67 W25G33    29.58R
6HR MIN TEMP:  35; 6HR MAX TEMP:  39; 6HR PCP:  0.02;

JAMESTOWN      PTCLDY    34  23  64 W25G36    29.63F
$$





USA.gov is the U.S. government's official web portal to all federal, state and local government web resources and services.